Powrót do katalogu

STARLINK-36061

AktywnyŁącznośćVLEO
NORAD 66847·PAYLOAD·🇺🇸 United States

Wystrzelony Dec 2, 2025 z Vandenberg Space Force Base

Loading…

Następne Przeloty (najbliższe 24 godziny)

TLE

ŚwieżeSource: CelesTrak SupGP

Epoka: Sep 14, 2026, 21:16 UTC

1 66847C 25280AC  26257.88659722  .00015561  00000+0  13029-2 0  2578
2 66847  70.0012 217.5836 0003372 264.5182  24.2205 14.98357486    19

Śledź STARLINK-36061 w czasie rzeczywistym z AllMySat

Download on the App Store